TimeCST,TemperatureF,Dew PointF,Humidity,Sea Level PressureIn,VisibilityMPH,Wind Direction,Wind SpeedMPH,Gust SpeedMPH,PrecipitationIn,Events,Conditions,WindDirDegrees,DateUTC
12:15 AM,56.7,54.0,91,29.55,7.0,South,19.6,27.6,N/A,,Scattered Clouds,190,2013-11-17 06:15:00
12:35 AM,56.3,53.8,91,29.54,7.0,South,16.1,-,N/A,,Clear,190,2013-11-17 06:35:00
12:55 AM,56.5,53.8,91,29.53,10.0,South,16.1,20.7,N/A,,Clear,190,2013-11-17 06:55:00
1:15 AM,56.8,54.1,91,29.53,10.0,SSW,11.5,-,N/A,,Mostly Cloudy,200,2013-11-17 07:15:00
1:35 AM,56.5,54.0,91,29.53,7.0,SSW,13.8,-,N/A,,Mostly Cloudy,200,2013-11-17 07:35:00
1:55 AM,58.1,54.9,89,29.54,10.0,SW,23.0,27.6,N/A,Rain-Thunderstorm,Light Thunderstorms and Rain,220,2013-11-17 07:55:00
2:15 AM,57.6,55.0,91,29.52,5.0,SSW,16.1,29.9,0.06,Rain,Light Rain,210,2013-11-17 08:15:00
2:35 AM,56.8,54.7,92,29.49,10.0,South,11.5,-,0.06,Rain,Light Rain,190,2013-11-17 08:35:00
2:55 AM,56.3,54.5,94,29.49,7.0,South,9.2,-,0.06,,Scattered Clouds,190,2013-11-17 08:55:00
3:15 AM,55.8,54.0,94,29.49,7.0,South,11.5,-,N/A,,Scattered Clouds,190,2013-11-17 09:15:00
3:35 AM,56.3,54.5,94,29.49,7.0,South,11.5,-,N/A,,Scattered Clouds,180,2013-11-17 09:35:00
3:55 AM,56.3,54.5,94,29.48,7.0,Calm,Calm,-,N/A,,Overcast,0,2013-11-17 09:55:00
4:15 AM,55.8,54.3,95,29.46,7.0,Calm,Calm,-,N/A,,Overcast,0,2013-11-17 10:15:00
4:35 AM,56.1,54.7,95,29.47,5.0,South,11.5,-,0.02,Rain-Thunderstorm,Light Thunderstorms and Rain,170,2013-11-17 10:35:00
4:55 AM,56.7,55.4,96,29.46,5.0,South,11.5,-,0.02,,Overcast,170,2013-11-17 10:55:00
5:15 AM,57.2,55.6,94,29.44,5.0,SSE,15.0,-,N/A,,Overcast,160,2013-11-17 11:15:00
5:35 AM,57.7,56.3,95,29.42,5.0,South,18.4,23.0,N/A,,Overcast,170,2013-11-17 11:35:00
5:55 AM,58.3,56.8,95,29.41,5.0,South,17.3,26.5,N/A,,Overcast,170,2013-11-17 11:55:00
6:15 AM,58.8,57.2,94,29.40,5.0,South,16.1,21.9,N/A,,Overcast,170,2013-11-17 12:15:00
6:35 AM,59.5,58.1,95,29.39,5.0,South,20.7,-,N/A,,Overcast,180,2013-11-17 12:35:00
6:55 AM,60.8,59.0,94,29.38,7.0,South,20.7,25.3,N/A,,Overcast,180,2013-11-17 12:55:00
7:15 AM,61.2,59.4,94,29.37,7.0,South,19.6,27.6,N/A,,Overcast,180,2013-11-17 13:15:00
7:35 AM,61.9,59.9,93,29.37,7.0,South,17.3,26.5,N/A,,Overcast,180,2013-11-17 13:35:00
7:55 AM,62.4,60.1,92,29.36,10.0,South,23.0,27.6,N/A,,Mostly Cloudy,180,2013-11-17 13:55:00
8:15 AM,63.5,60.8,91,29.35,10.0,South,20.7,-,N/A,,Scattered Clouds,180,2013-11-17 14:15:00
8:35 AM,63.5,60.8,91,29.34,10.0,South,23.0,27.6,N/A,,Scattered Clouds,170,2013-11-17 14:35:00
8:55 AM,64.2,61.2,90,29.32,10.0,South,26.5,33.4,N/A,Thunderstorm,Scattered Clouds,180,2013-11-17 14:55:00
9:15 AM,64.8,61.2,88,29.31,10.0,South,31.1,35.7,N/A,,Clear,180,2013-11-17 15:15:00
9:35 AM,65.3,61.3,87,29.30,10.0,South,27.6,33.4,N/A,Thunderstorm,Thunderstorm,190,2013-11-17 15:35:00
9:55 AM,65.7,61.2,85,29.30,10.0,SSW,26.5,34.5,N/A,Thunderstorm,Clear,200,2013-11-17 15:55:00
10:15 AM,65.5,60.8,85,29.28,10.0,SSW,20.7,32.2,N/A,Thunderstorm,Clear,200,2013-11-17 16:15:00
10:35 AM,64.6,60.8,88,29.26,10.0,South,19.6,-,N/A,Thunderstorm,Clear,190,2013-11-17 16:35:00
10:55 AM,64.6,60.6,87,29.24,10.0,South,28.8,35.7,N/A,Thunderstorm,Scattered Clouds,190,2013-11-17 16:55:00
11:15 AM,63.3,57.0,80,29.22,10.0,South,25.3,32.2,N/A,Thunderstorm,Thunderstorm,190,2013-11-17 17:15:00
11:35 AM,61.0,55.4,82,29.20,10.0,South,15.0,-,N/A,Rain-Thunderstorm,Rain,190,2013-11-17 17:35:00
11:55 AM,60.4,55.6,84,29.18,10.0,WSW,13.8,26.5,0.02,Rain-Thunderstorm,Light Thunderstorms and Rain,250,2013-11-17 17:55:00
12:15 PM,60.6,56.3,86,29.18,3.0,South,20.7,-,0.30,Rain,Heavy Rain,190,2013-11-17 18:15:00
12:35 PM,58.5,54.3,86,29.28,2.0,West,44.9,66.7,0.78,Rain-Thunderstorm,Heavy Thunderstorms and Rain,260,2013-11-17 18:35:00
2:15 PM,54.0,52.5,95,29.24,3.0,West,33.4,42.6,N/A,Rain,Light Rain,280,2013-11-17 20:15:00
2:35 PM,51.4,48.4,89,29.28,10.0,West,39.1,46.0,N/A,,Overcast,280,2013-11-17 20:35:00
2:55 PM,48.6,44.2,85,29.33,7.0,West,34.5,44.9,N/A,,Overcast,270,2013-11-17 20:55:00
3:15 PM,46.9,44.2,90,29.37,3.0,West,31.1,46.0,N/A,,Drizzle,270,2013-11-17 21:15:00
3:35 PM,46.6,43.9,90,29.39,10.0,West,29.9,36.8,N/A,,Overcast,270,2013-11-17 21:35:00
3:55 PM,46.8,43.3,88,29.42,10.0,West,29.9,34.5,N/A,,Overcast,270,2013-11-17 21:55:00
4:15 PM,46.2,41.0,82,29.45,10.0,West,31.1,46.0,N/A,Rain,Light Rain,270,2013-11-17 22:15:00
4:35 PM,45.5,41.2,85,29.48,7.0,West,26.5,40.3,N/A,,Drizzle,270,2013-11-17 22:35:00
4:55 PM,45.5,41.0,84,29.50,10.0,West,27.6,36.8,N/A,,Overcast,280,2013-11-17 22:55:00
5:15 PM,45.7,40.6,83,29.52,10.0,West,28.8,41.4,N/A,,Overcast,270,2013-11-17 23:15:00
5:35 PM,45.7,40.6,83,29.54,10.0,West,28.8,36.8,N/A,,Overcast,270,2013-11-17 23:35:00
5:55 PM,45.7,40.6,83,29.56,10.0,West,29.9,36.8,N/A,,Overcast,270,2013-11-17 23:55:00
6:15 PM,45.5,40.5,83,29.58,10.0,West,25.3,32.2,N/A,,Overcast,280,2013-11-18 00:15:00
6:35 PM,45.5,40.8,84,29.59,10.0,West,26.5,34.5,N/A,,Overcast,280,2013-11-18 00:35:00
6:55 PM,45.0,38.5,78,29.61,10.0,West,25.3,39.1,N/A,,Overcast,280,2013-11-18 00:55:00
7:15 PM,44.6,37.4,76,29.62,10.0,WNW,28.8,36.8,N/A,,Overcast,290,2013-11-18 01:15:00
7:35 PM,44.2,37.8,78,29.64,10.0,West,21.9,38.0,N/A,,Overcast,280,2013-11-18 01:35:00
7:55 PM,43.3,37.0,78,29.66,10.0,West,18.4,29.9,N/A,,Mostly Cloudy,270,2013-11-18 01:55:00
8:15 PM,42.6,36.0,77,29.67,10.0,West,24.2,32.2,N/A,,Scattered Clouds,280,2013-11-18 02:15:00
8:35 PM,41.9,36.5,81,29.69,10.0,West,20.7,27.6,N/A,,Clear,270,2013-11-18 02:35:00
8:55 PM,41.9,36.5,81,29.69,10.0,West,21.9,26.5,N/A,,Clear,270,2013-11-18 02:55:00
9:15 PM,41.4,36.5,83,29.71,10.0,West,20.7,28.8,N/A,,Clear,270,2013-11-18 03:15:00
9:35 PM,41.4,35.8,81,29.72,10.0,West,24.2,29.9,N/A,,Clear,280,2013-11-18 03:35:00
9:55 PM,41.2,35.8,81,29.73,10.0,West,19.6,27.6,N/A,,Clear,270,2013-11-18 03:55:00
10:15 PM,41.0,35.6,81,29.73,10.0,West,19.6,-,N/A,,Clear,270,2013-11-18 04:15:00
10:35 PM,41.0,35.2,80,29.73,10.0,West,17.3,-,N/A,,Clear,280,2013-11-18 04:35:00
10:55 PM,40.5,35.4,82,29.74,10.0,West,18.4,-,N/A,,Clear,280,2013-11-18 04:55:00
11:15 PM,40.5,35.2,82,29.76,10.0,West,19.6,25.3,N/A,,Clear,280,2013-11-18 05:15:00
11:35 PM,40.3,35.6,83,29.77,10.0,West,15.0,-,N/A,,Clear,270,2013-11-18 05:35:00
11:55 PM,40.3,35.1,82,29.78,10.0,West,20.7,25.3,N/A,,Clear,270,2013-11-18 05:55:00